TimeEST,TemperatureF,Dew PointF,Humidity,Sea Level PressureIn,VisibilityMPH,Wind Direction,Wind SpeedMPH,Gust SpeedMPH,PrecipitationIn,Events,Conditions,WindDirDegrees,DateUTC
12:51 AM,37.0,25.0,62,30.43,10.0,North,11.5,-,N/A,,Mostly Cloudy,360,2012-11-15 05:51:00
1:39 AM,37.4,26.6,65,30.43,10.0,North,12.7,-,N/A,,Overcast,360,2012-11-15 06:39:00
1:51 AM,37.0,27.0,67,30.44,10.0,North,12.7,-,N/A,,Overcast,10,2012-11-15 06:51:00
2:51 AM,37.0,27.0,67,30.43,10.0,North,11.5,-,N/A,,Overcast,350,2012-11-15 07:51:00
3:51 AM,37.0,27.0,67,30.42,10.0,North,15.0,-,N/A,,Overcast,350,2012-11-15 08:51:00
4:51 AM,37.0,28.0,70,30.42,10.0,North,12.7,-,N/A,,Overcast,360,2012-11-15 09:51:00
5:51 AM,37.0,28.0,70,30.42,10.0,North,11.5,-,N/A,,Overcast,360,2012-11-15 10:51:00
6:51 AM,36.0,28.0,73,30.43,10.0,North,10.4,-,N/A,,Overcast,350,2012-11-15 11:51:00
7:51 AM,37.0,28.0,70,30.44,10.0,North,11.5,-,N/A,,Overcast,350,2012-11-15 12:51:00
8:51 AM,37.0,28.0,70,30.44,10.0,North,13.8,-,N/A,,Overcast,350,2012-11-15 13:51:00
9:51 AM,39.0,28.9,67,30.42,10.0,North,13.8,20.7,N/A,,Overcast,360,2012-11-15 14:51:00
10:51 AM,39.9,28.9,65,30.40,10.0,North,11.5,-,N/A,,Overcast,10,2012-11-15 15:51:00
11:51 AM,41.0,30.0,65,30.38,10.0,North,10.4,-,N/A,,Overcast,10,2012-11-15 16:51:00
12:51 PM,41.0,30.0,65,30.37,10.0,North,11.5,-,N/A,,Overcast,10,2012-11-15 17:51:00
1:51 PM,41.0,30.9,67,30.35,10.0,North,12.7,-,N/A,,Overcast,360,2012-11-15 18:51:00
2:51 PM,39.9,30.0,68,30.35,10.0,North,11.5,-,N/A,,Mostly Cloudy,10,2012-11-15 19:51:00
3:51 PM,39.0,30.0,70,30.36,10.0,NNE,10.4,-,N/A,,Mostly Cloudy,30,2012-11-15 20:51:00
4:16 PM,39.2,28.4,65,30.35,10.0,NNE,10.4,-,N/A,,Mostly Cloudy,30,2012-11-15 21:16:00
4:51 PM,37.0,28.9,73,30.35,10.0,NE,8.1,-,N/A,,Mostly Cloudy,40,2012-11-15 21:51:00
5:51 PM,35.1,28.9,78,30.35,10.0,NE,4.6,-,N/A,,Mostly Cloudy,40,2012-11-15 22:51:00
6:51 PM,36.0,28.9,76,30.34,10.0,North,3.5,-,N/A,,Mostly Cloudy,10,2012-11-15 23:51:00
7:51 PM,37.0,30.0,76,30.34,10.0,NNW,4.6,-,N/A,,Overcast,340,2012-11-16 00:51:00
8:51 PM,37.0,30.0,76,30.34,10.0,NNW,5.8,-,N/A,,Overcast,330,2012-11-16 01:51:00
9:51 PM,37.9,30.0,73,30.32,10.0,NNW,8.1,-,N/A,,Overcast,340,2012-11-16 02:51:00
10:17 PM,37.4,30.2,75,30.31,10.0,NNW,6.9,-,N/A,,Overcast,340,2012-11-16 03:17:00
10:51 PM,37.9,30.0,73,30.32,10.0,NNW,5.8,-,N/A,,Overcast,330,2012-11-16 03:51:00
11:18 PM,37.4,30.2,75,30.31,10.0,NNW,8.1,-,N/A,,Overcast,340,2012-11-16 04:18:00
11:51 PM,36.0,30.0,79,30.30,10.0,North,8.1,-,N/A,,Mostly Cloudy,350,2012-11-16 04:51:00